QPF
0.21 0.42 0.80 1.45 2.32 3.04 3.13 2.52 1.92 1.51 1.10 0.75 0.39 0.15 0.07 0.03 0.02 0.01 0.00 0.00 0.00 0.00 0.00 0.00 0.00 0.00 0.00 0.00 0.00 0.00 0.00 0.00 0.00 0.00 0.00 0.00 0.00 0.00 0.00 0.00 0.01 0.01 0.01
0.35 0.60 1.18 1.86 2.24 2.32 1.96 1.49 1.20 1.01 0.72 0.45 0.21 0.11 0.06 0.03 0.01 0.01 0.00 0.00 0.00 0.00 0.00 0.00 0.00 0.00 0.00 0.00 0.00 0.00 0.00 0.00 0.00 0.00 0.00 0.00 0.00 0.00 0.00 0.00 0.01 0.01 0.02
0.49 0.64 1.03 1.37 1.21 0.94 0.82 0.76 0.68 0.44 0.28 0.22 0.11 0.05 0.03 0.02 0.02 0.01 0.01 0.00 0.00 0.00 0.00 0.00 0.00 0.00 0.00 0.00 0.00 0.00 0.00 0.00 0.00 0.00 0.01 0.01 0.00 0.00 0.00 0.00 0.02 0.02 0.03
0.24 0.28 0.41 0.52 0.55 0.53 0.47 0.56 0.53 0.29 0.21 0.15 0.08 0.06 0.06 0.05 0.04 0.02 0.01 0.01 0.01 0.00 0.00 0.00 0.00 0.00 0.00 0.00 0.00 0.00 0.00 0.00 0.00 0.00 0.01 0.01 0.01 0.02 0.01 0.00 0.00 0.02 0.04
0.04 0.06 0.10 0.13 0.16 0.18 0.21 0.35 0.41 0.32 0.25 0.20 0.14 0.12 0.11 0.09 0.08 0.06 0.04 0.03 0.02 0.01 0.00 0.00 0.00 0.00 0.00 0.00 0.00 0.00 0.00 0.00 0.00 0.00 0.00 0.00 0.01 0.02 0.02 0.00 0.00 0.01 0.03
0.01 0.01 0.02 0.03 0.05 0.08 0.11 0.20 0.28 0.29 0.30 0.29 0.23 0.17 0.12 0.11 0.10 0.08 0.08 0.05 0.02 0.01 0.01 0.00 0.00 0.01 0.01 0.00 0.00 0.00 0.00 0.00 0.00 0.00 0.00 0.00 0.00 0.01 0.01 0.01 0.00 0.01 0.00
0.00 0.00 0.01 0.01 0.02 0.03 0.04 0.07 0.08 0.10 0.14 0.18 0.20 0.18 0.14 0.12 0.11 0.09 0.07 0.06 0.05 0.04 0.03 0.02 0.01 0.02 0.01 0.00 0.00 0.00 0.00 0.00 0.00 0.00 0.00 0.00 0.00 0.01 0.01 0.01 0.01 0.01 0.00
0.00 0.00 0.00 0.00 0.00 0.01 0.01 0.01 0.01 0.02 0.03 0.04 0.05 0.07 0.08 0.08 0.08 0.08 0.08 0.11 0.15 0.16 0.14 0.08 0.04 0.03 0.01 0.01 0.00 0.00 0.00 0.00 0.00 0.00 0.00 0.00 0.00 0.00 0.01 0.01 0.02 0.01 0.00
0.00 0.00 0.00 0.00 0.00 0.00 0.00 0.00 0.00 0.00 0.00 0.01 0.01 0.01 0.02 0.02 0.03 0.04 0.05 0.08 0.14 0.19 0.17 0.13 0.09 0.05 0.03 0.02 0.01 0.00 0.00 0.00 0.00 0.00 0.00 0.00 0.00 0.01 0.01 0.02 0.02 0.02 0.01
0.00 0.00 0.00 0.00 0.00 0.00 0.00 0.00 0.00 0.00 0.00 0.00 0.00 0.00 0.00 0.00 0.01 0.01 0.02 0.04 0.06 0.09 0.11 0.10 0.08 0.06 0.04 0.04 0.03 0.01 0.00 0.00 0.00 0.00 0.00 0.00 0.00 0.00 0.01 0.01 0.02 0.02 0.01
0.00 0.00 0.00 0.00 0.00 0.00 0.00 0.00 0.00 0.00 0.00 0.00 0.00 0.00 0.00 0.00 0.00 0.00 0.00 0.01 0.01 0.03 0.04 0.05 0.05 0.05 0.04 0.04 0.03 0.02 0.01 0.01 0.00 0.00 0.00 0.00 0.00 0.00 0.00 0.01 0.01 0.02 0.02
0.00 0.00 0.00 0.00 0.00 0.00 0.00 0.00 0.00 0.00 0.00 0.00 0.00 0.00 0.00 0.00 0.00 0.00 0.00 0.00 0.00 0.00 0.00 0.01 0.01 0.02 0.03 0.04 0.04 0.04 0.02 0.02 0.01 0.00 0.00 0.00 0.00 0.00 0.00 0.00 0.00 0.01 0.03
0.00 0.00 0.00 0.00 0.00 0.00 0.00 0.00 0.00 0.00 0.00 0.00 0.00 0.00 0.00 0.00 0.00 0.00 0.00 0.00 0.00 0.00 0.00 0.00 0.00 0.00 0.01 0.02 0.03 0.04 0.03 0.03 0.02 0.01 0.01 0.00 0.00 0.00 0.00 0.00 0.00 0.01 0.03
0.00 0.00 0.00 0.00 0.00 0.00 0.00 0.00 0.00 0.00 0.00 0.00 0.00 0.00 0.00 0.00 0.00 0.00 0.00 0.00 0.00 0.00 0.00 0.00 0.00 0.00 0.00 0.01 0.02 0.03 0.04 0.03 0.03 0.03 0.02 0.01 0.00 0.00 0.00 0.00 0.00 0.01 0.02
0.00 0.00 0.00 0.00 0.00 0.00 0.00 0.00 0.00 0.00 0.00 0.00 0.00 0.00 0.00 0.00 0.00 0.00 0.00 0.00 0.00 0.00 0.00 0.00 0.00 0.00 0.00 0.01 0.02 0.03 0.04 0.04 0.03 0.04 0.03 0.01 0.00 0.00 0.00 0.00 0.00 0.00 0.01
0.00 0.00 0.00 0.00 0.00 0.00 0.00 0.00 0.00 0.00 0.00 0.00 0.00 0.00 0.00 0.00 0.00 0.00 0.00 0.01 0.00 0.00 0.00 0.00 0.00 0.00 0.01 0.01 0.02 0.02 0.03 0.05 0.05 0.04 0.03 0.02 0.00 0.00 0.00 0.00 0.00 0.00 0.01
0.00 0.00 0.00 0.00 0.00 0.00 0.00 0.00 0.00 0.00 0.00 0.00 0.00 0.00 0.00 0.00 0.00 0.00 0.01 0.01 0.01 0.01 0.01 0.01 0.01 0.00 0.01 0.01 0.01 0.02 0.03 0.05 0.06 0.06 0.04 0.03 0.01 0.00 0.00 0.00 0.00 0.00 0.01
0.00 0.00 0.00 0.00 0.00 0.00 0.00 0.00 0.00 0.00 0.00 0.00 0.00 0.00 0.00 0.00 0.00 0.00 0.00 0.01 0.01 0.01 0.01 0.01 0.01 0.00 0.00 0.00 0.01 0.02 0.04 0.06 0.07 0.07 0.06 0.04 0.02 0.00 0.00 0.00 0.00 0.00 0.01
0.00 0.00 0.00 0.00 0.00 0.00 0.00 0.00 0.00 0.00 0.00 0.00 0.01 0.01 0.01 0.01 0.00 0.00 0.01 0.01 0.01 0.01 0.01 0.01 0.01 0.01 0.00 0.01 0.01 0.01 0.04 0.07 0.08 0.09 0.09 0.06 0.03 0.01 0.00 0.00 0.00 0.00 0.00
0.00 0.00 0.00 0.00 0.00 0.00 0.00 0.00 0.01 0.01 0.02 0.02 0.03 0.02 0.02 0.02 0.01 0.01 0.01 0.01 0.01 0.01 0.01 0.00 0.01 0.01 0.01 0.01 0.01 0.01 0.03 0.06 0.09 0.11 0.12 0.10 0.05 0.02 0.00 0.00 0.00 0.00 0.00
0.00 0.00 0.00 0.00 0.00 0.00 0.01 0.02 0.03 0.04 0.04 0.05 0.05 0.04 0.04 0.03 0.02 0.01 0.01 0.01 0.01 0.00 0.01 0.00 0.00 0.01 0.01 0.00 0.00 0.00 0.03 0.06 0.11 0.15 0.16 0.14 0.09 0.04 0.01 0.01 0.00 0.00 0.00
0.00 0.00 0.00 0.00 0.00 0.01 0.03 0.05 0.05 0.05 0.06 0.06 0.05 0.04 0.03 0.03 0.02 0.02 0.01 0.01 0.01 0.01 0.01 0.00 0.00 0.00 0.00 0.00 0.00 0.00 0.02 0.06 0.11 0.19 0.23 0.18 0.13 0.07 0.03 0.01 0.00 0.00 0.00
0.00 0.00 0.00 0.01 0.01 0.02 0.04 0.07 0.06 0.06 0.07 0.07 0.06 0.04 0.04 0.03 0.03 0.03 0.02 0.01 0.01 0.01 0.01 0.01 0.01 0.01 0.01 0.01 0.00 0.00 0.01 0.05 0.11 0.21 0.31 0.27 0.18 0.10 0.05 0.02 0.00 0.00 0.00
0.00 0.00 0.01 0.02 0.03 0.03 0.03 0.05 0.06 0.07 0.08 0.08 0.06 0.05 0.05 0.05 0.05 0.04 0.04 0.02 0.01 0.01 0.01 0.01 0.01 0.01 0.02 0.02 0.01 0.00 0.01 0.05 0.11 0.21 0.34 0.38 0.27 0.15 0.07 0.03 0.01 0.00 0.00
0.01 0.02 0.03 0.04 0.04 0.04 0.03 0.04 0.05 0.07 0.08 0.08 0.07 0.07 0.08 0.07 0.06 0.06 0.05 0.03 0.02 0.02 0.01 0.01 0.02 0.02 0.02 0.02 0.02 0.02 0.03 0.04 0.11 0.23 0.38 0.48 0.37 0.21 0.09 0.03 0.01 0.00 0.00
0.02 0.03 0.04 0.04 0.04 0.04 0.03 0.03 0.04 0.06 0.08 0.08 0.07 0.07 0.07 0.07 0.07 0.06 0.04 0.03 0.01 0.01 0.01 0.01 0.01 0.01 0.01 0.01 0.01 0.03 0.04 0.05 0.10 0.24 0.40 0.50 0.40 0.21 0.09 0.02 0.01 0.00 0.00
MSLP
1011.77 1011.64 1011.44 1011.15 1010.79 1010.37 1009.95 1009.55 1009.22 1008.99 1008.86 1008.82 1008.85 1008.91 1008.96 1008.99 1008.96 1008.91 1008.84 1008.78 1008.78 1008.84 1008.99 1009.21 1009.48 1009.78 1010.06 1010.31 1010.50 1010.63 1010.70 1010.73 1010.74 1010.73 1010.72 1010.69 1010.64 1010.54 1010.40 1010.20 1009.95 1009.69 1009.43
1012.29 1012.05 1011.75 1011.38 1010.97 1010.52 1010.09 1009.71 1009.43 1009.26 1009.20 1009.23 1009.31 1009.38 1009.42 1009.39 1009.29 1009.13 1008.95 1008.80 1008.72 1008.73 1008.86 1009.09 1009.39 1009.71 1010.02 1010.28 1010.46 1010.57 1010.61 1010.60 1010.58 1010.55 1010.53 1010.50 1010.47 1010.40 1010.28 1010.10 1009.86 1009.57 1009.27
1012.61 1012.31 1011.98 1011.61 1011.21 1010.79 1010.39 1010.06 1009.84 1009.73 1009.74 1009.81 1009.92 1010.00 1010.01 1009.92 1009.72 1009.46 1009.17 1008.92 1008.75 1008.70 1008.78 1008.99 1009.28 1009.61 1009.92 1010.17 1010.34 1010.43 1010.44 1010.41 1010.36 1010.33 1010.32 1010.32 1010.33 1010.31 1010.23 1010.08 1009.86 1009.57 1009.24
1012.81 1012.51 1012.21 1011.88 1011.54 1011.18 1010.85 1010.59 1010.42 1010.37 1010.41 1010.51 1010.62 1010.68 1010.65 1010.50 1010.22 1009.87 1009.48 1009.12 1008.86 1008.73 1008.75 1008.91 1009.17 1009.47 1009.75 1009.98 1010.13 1010.19 1010.18 1010.14 1010.09 1010.07 1010.08 1010.13 1010.19 1010.23 1010.21 1010.12 1009.92 1009.63 1009.28
1012.93 1012.68 1012.45 1012.21 1011.95 1011.68 1011.42 1011.21 1011.09 1011.06 1011.12 1011.22 1011.32 1011.35 1011.28 1011.08 1010.74 1010.31 1009.84 1009.40 1009.05 1008.84 1008.78 1008.86 1009.05 1009.29 1009.53 1009.72 1009.83 1009.87 1009.84 1009.79 1009.75 1009.75 1009.80 1009.90 1010.02 1010.13 1010.18 1010.13 1009.98 1009.71 1009.34
1013.04 1012.85 1012.71 1012.57 1012.40 1012.20 1012.01 1011.84 1011.74 1011.71 1011.76 1011.84 1011.92 1011.93 1011.83 1011.59 1011.22 1010.75 1010.22 1009.72 1009.30 1009.00 1008.85 1008.85 1008.95 1009.11 1009.27 1009.40 1009.46 1009.47 1009.43 1009.37 1009.35 1009.37 1009.46 1009.61 1009.79 1009.95 1010.06 1010.07 1009.96 1009.72 1009.37
1013.15 1013.04 1012.97 1012.91 1012.81 1012.68 1012.52 1012.36 1012.26 1012.21 1012.23 1012.29 1012.34 1012.34 1012.23 1011.99 1011.61 1011.13 1010.59 1010.06 1009.58 1009.22 1008.99 1008.88 1008.88 1008.93 1009.00 1009.05 1009.05 1009.01 1008.95 1008.89 1008.87 1008.92 1009.04 1009.22 1009.45 1009.66 1009.82 1009.88 1009.82 1009.62 1009.30
1013.27 1013.22 1013.21 1013.20 1013.14 1013.02 1012.87 1012.71 1012.57 1012.49 1012.48 1012.50 1012.53 1012.52 1012.43 1012.21 1011.87 1011.42 1010.91 1010.37 1009.88 1009.46 1009.15 1008.95 1008.84 1008.78 1008.75 1008.70 1008.63 1008.53 1008.44 1008.36 1008.34 1008.39 1008.53 1008.73 1008.98 1009.22 1009.42 1009.53 1009.52 1009.37 1009.11
1013.42 1013.38 1013.39 1013.39 1013.32 1013.19 1013.01 1012.81 1012.63 1012.50 1012.45 1012.44 1012.46 1012.46 1012.39 1012.23 1011.95 1011.57 1011.11 1010.62 1010.13 1009.70 1009.33 1009.05 1008.84 1008.67 1008.52 1008.38 1008.22 1008.07 1007.92 1007.81 1007.78 1007.82 1007.94 1008.15 1008.40 1008.65 1008.87 1009.01 1009.05 1008.97 1008.78
1013.57 1013.52 1013.50 1013.45 1013.34 1013.16 1012.92 1012.66 1012.42 1012.24 1012.14 1012.11 1012.12 1012.14 1012.11 1012.02 1011.82 1011.53 1011.16 1010.73 1010.29 1009.87 1009.48 1009.14 1008.85 1008.59 1008.34 1008.10 1007.86 1007.63 1007.43 1007.29 1007.21 1007.23 1007.33 1007.50 1007.73 1007.98 1008.20 1008.36 1008.45 1008.43 1008.33
1013.71 1013.60 1013.51 1013.38 1013.18 1012.92 1012.60 1012.27 1011.97 1011.74 1011.59 1011.52 1011.52 1011.56 1011.58 1011.55 1011.45 1011.26 1010.99 1010.67 1010.30 1009.92 1009.55 1009.19 1008.85 1008.52 1008.19 1007.87 1007.56 1007.26 1007.00 1006.81 1006.69 1006.66 1006.72 1006.85 1007.05 1007.26 1007.47 1007.64 1007.75 1007.79 1007.78
1013.81 1013.61 1013.41 1013.17 1012.87 1012.50 1012.10 1011.70 1011.33 1011.04 1010.84 1010.74 1010.72 1010.76 1010.81 1010.84 1010.82 1010.74 1010.59 1010.37 1010.11 1009.81 1009.48 1009.14 1008.79 1008.42 1008.05 1007.67 1007.29 1006.94 1006.63 1006.38 1006.21 1006.14 1006.15 1006.24 1006.39 1006.56 1006.74 1006.90 1007.02 1007.10 1007.15
1013.85 1013.53 1013.20 1012.84 1012.42 1011.95 1011.47 1010.99 1010.56 1010.22 1009.97 1009.82 1009.77 1009.79 1009.85 1009.92 1009.97 1009.98 1009.93 1009.84 1009.69 1009.49 1009.24 1008.95 1008.62 1008.26 1007.86 1007.45 1007.03 1006.64 1006.29 1006.00 1005.80 1005.68 1005.65 1005.69 1005.79 1005.92 1006.06 1006.19 1006.31 1006.41 1006.50
1013.79 1013.35 1012.88 1012.39 1011.87 1011.31 1010.75 1010.22 1009.73 1009.33 1009.03 1008.83 1008.73 1008.71 1008.75 1008.83 1008.92 1009.00 1009.06 1009.07 1009.04 1008.95 1008.81 1008.59 1008.31 1007.98 1007.59 1007.17 1006.74 1006.33 1005.96 1005.65 1005.42 1005.27 1005.21 1005.22 1005.28 1005.37 1005.47 1005.57 1005.66 1005.76 1005.87
1013.60 1013.04 1012.46 1011.86 1011.25 1010.62 1010.01 1009.43 1008.90 1008.45 1008.09 1007.83 1007.67 1007.59 1007.60 1007.66 1007.76 1007.89 1008.02 1008.13 1008.20 1008.22 1008.18 1008.05 1007.84 1007.55 1007.19 1006.79 1006.37 1005.96 1005.58 1005.27 1005.03 1004.88 1004.81 1004.80 1004.83 1004.90 1004.97 1005.04 1005.10 1005.18 1005.28
1013.29 1012.63 1011.95 1011.27 1010.59 1009.93 1009.28 1008.68 1008.12 1007.63 1007.22 1006.90 1006.66 1006.51 1006.45 1006.48 1006.57 1006.71 1006.88 1007.06 1007.22 1007.33 1007.38 1007.34 1007.20 1006.97 1006.65 1006.28 1005.88 1005.48 1005.13 1004.83 1004.61 1004.47 1004.41 1004.40 1004.44 1004.49 1004.55 1004.60 1004.65 1004.70 1004.79
1012.87 1012.14 1011.40 1010.67 1009.96 1009.27 1008.62 1008.00 1007.43 1006.91 1006.45 1006.07 1005.76 1005.53 1005.40 1005.36 1005.42 1005.55 1005.73 1005.95 1006.17 1006.35 1006.47 1006.49 1006.42 1006.24 1005.97 1005.63 1005.27 1004.90 1004.57 1004.31 1004.12 1004.01 1003.98 1004.00 1004.06 1004.13 1004.19 1004.25 1004.29 1004.34 1004.41
1012.40 1011.62 1010.85 1010.10 1009.38 1008.70 1008.05 1007.43 1006.86 1006.32 1005.82 1005.37 1004.99 1004.69 1004.48 1004.38 1004.38 1004.48 1004.65 1004.87 1005.11 1005.33 1005.49 1005.56 1005.53 1005.40 1005.17 1004.88 1004.55 1004.22 1003.94 1003.72 1003.57 1003.51 1003.52 1003.59 1003.68 1003.79 1003.88 1003.97 1004.03 1004.10 1004.19
1011.93 1011.13 1010.36 1009.61 1008.90 1008.23 1007.59 1006.98 1006.40 1005.84 1005.31 1004.81 1004.37 1004.00 1003.72 1003.54 1003.48 1003.53 1003.67 1003.88 1004.11 1004.33 1004.51 1004.60 1004.60 1004.50 1004.32 1004.06 1003.78 1003.50 1003.27 1003.09 1003.00 1002.99 1003.05 1003.16 1003.31 1003.46 1003.62 1003.75 1003.87 1003.98 1004.11
1011.52 1010.73 1009.96 1009.23 1008.53 1007.87 1007.24 1006.63 1006.04 1005.45 1004.89 1004.35 1003.86 1003.43 1003.08 1002.85 1002.73 1002.72 1002.81 1002.98 1003.18 1003.39 1003.56 1003.67 1003.68 1003.61 1003.47 1003.26 1003.03 1002.81 1002.62 1002.51 1002.46 1002.50 1002.60 1002.77 1002.96 1003.17 1003.38 1003.58 1003.77 1003.96 1004.16
1011.20 1010.43 1009.68 1008.96 1008.26 1007.60 1006.96 1006.34 1005.73 1005.13 1004.53 1003.95 1003.42 1002.94 1002.55 1002.25 1002.08 1002.02 1002.06 1002.18 1002.34 1002.52 1002.68 1002.78 1002.82 1002.78 1002.68 1002.53 1002.36 1002.21 1002.08 1002.02 1002.02 1002.10 1002.24 1002.43 1002.67 1002.92 1003.19 1003.46 1003.73 1004.01 1004.31
1010.99 1010.24 1009.50 1008.78 1008.07 1007.39 1006.73 1006.08 1005.44 1004.80 1004.17 1003.57 1003.00 1002.49 1002.05 1001.72 1001.50 1001.39 1001.38 1001.45 1001.58 1001.72 1001.86 1001.97 1002.03 1002.04 1002.00 1001.92 1001.83 1001.74 1001.68 1001.67 1001.72 1001.82 1001.99 1002.20 1002.45 1002.73 1003.04 1003.37 1003.72 1004.10 1004.50
1010.86 1010.13 1009.38 1008.65 1007.92 1007.20 1006.50 1005.81 1005.12 1004.45 1003.79 1003.15 1002.56 1002.03 1001.58 1001.22 1000.96 1000.81 1000.76 1000.79 1000.87 1000.99 1001.12 1001.25 1001.34 1001.40 1001.43 1001.44 1001.43 1001.43 1001.45 1001.49 1001.57 1001.70 1001.86 1002.07 1002.32 1002.60 1002.93 1003.30 1003.72 1004.18 1004.68
1010.76 1010.03 1009.28 1008.52 1007.75 1006.99 1006.23 1005.49 1004.76 1004.04 1003.36 1002.71 1002.10 1001.56 1001.10 1000.73 1000.45 1000.27 1000.18 1000.18 1000.23 1000.33 1000.46 1000.60 1000.74 1000.86 1000.98 1001.08 1001.17 1001.26 1001.35 1001.45 1001.57 1001.70 1001.86 1002.04 1002.27 1002.54 1002.87 1003.25 1003.71 1004.23 1004.81
1010.65 1009.91 1009.14 1008.35 1007.54 1006.72 1005.91 1005.12 1004.35 1003.60 1002.90 1002.24 1001.64 1001.10 1000.65 1000.27 999.99 999.79 999.67 999.64 999.67 999.75 999.88 1000.04 1000.22 1000.41 1000.61 1000.80 1000.99 1001.17 1001.34 1001.50 1001.64 1001.78 1001.93 1002.09 1002.28 1002.51 1002.82 1003.20 1003.67 1004.23 1004.87
1010.48 1009.73 1008.94 1008.11 1007.26 1006.40 1005.54 1004.71 1003.91 1003.15 1002.44 1001.79 1001.21 1000.69 1000.25 999.89 999.61 999.40 999.26 999.20 999.21 999.28 999.40 999.58 999.79 1000.04 1000.31 1000.58 1000.86 1001.12 1001.36 1001.56 1001.74 1001.88 1002.01 1002.15 1002.30 1002.51 1002.78 1003.15 1003.61 1004.18 1004.84
Thickness
5754 5756 5756 5755 5756 5755 5751 5746 5740 5735 5727 5724 5724 5729 5733 5738 5740 5742 5741 5739 5737 5735 5734 5732 5731 5729 5726 5725 5726 5726 5726 5727 5729 5726 5725 5729 5732 5733 5733 5733 5732 5732 5733
5744 5748 5749 5750 5747 5745 5739 5735 5730 5727 5725 5723 5725 5727 5730 5733 5736 5737 5735 5734 5732 5731 5730 5728 5726 5725 5723 5722 5722 5722 5721 5722 5726 5723 5719 5716 5720 5727 5731 5730 5729 5729 5730
5734 5738 5740 5738 5737 5734 5729 5726 5721 5718 5720 5722 5723 5724 5724 5724 5724 5725 5726 5727 5728 5727 5727 5725 5723 5721 5719 5717 5718 5719 5717 5716 5720 5722 5718 5712 5708 5713 5722 5726 5726 5725 5724
5724 5727 5730 5728 5726 5722 5718 5715 5711 5710 5710 5711 5713 5714 5712 5709 5712 5715 5719 5720 5721 5722 5722 5722 5720 5718 5716 5714 5715 5715 5714 5714 5713 5716 5718 5716 5713 5708 5708 5715 5720 5720 5719
5714 5716 5717 5716 5714 5710 5706 5703 5701 5701 5700 5700 5700 5700 5700 5701 5703 5705 5709 5711 5713 5715 5716 5716 5715 5713 5711 5710 5710 5710 5710 5710 5710 5711 5712 5712 5711 5710 5705 5704 5709 5713 5715
5705 5706 5706 5704 5701 5698 5694 5692 5690 5689 5688 5688 5688 5687 5687 5688 5690 5692 5695 5699 5703 5707 5709 5710 5710 5709 5707 5705 5705 5705 5705 5706 5707 5708 5708 5707 5706 5705 5703 5702 5702 5704 5709
5697 5696 5694 5691 5687 5685 5682 5680 5678 5677 5676 5676 5676 5675 5675 5675 5676 5677 5680 5684 5688 5693 5697 5702 5703 5703 5702 5701 5700 5699 5699 5701 5702 5703 5705 5705 5705 5705 5703 5700 5699 5699 5702
5688 5686 5683 5680 5678 5675 5672 5669 5667 5664 5663 5662 5661 5661 5661 5661 5662 5664 5666 5670 5673 5678 5684 5690 5694 5696 5696 5696 5695 5693 5694 5695 5696 5698 5700 5701 5703 5703 5702 5700 5697 5695 5694
5677 5673 5670 5666 5663 5661 5659 5657 5655 5652 5650 5649 5647 5646 5645 5645 5646 5649 5651 5654 5658 5663 5668 5674 5680 5684 5686 5687 5687 5686 5687 5689 5691 5693 5695 5695 5698 5700 5700 5700 5697 5692 5688
5669 5665 5661 5657 5653 5649 5644 5640 5638 5636 5635 5634 5632 5631 5629 5628 5629 5630 5633 5637 5641 5645 5650 5655 5661 5667 5672 5676 5677 5679 5681 5682 5684 5687 5689 5690 5692 5694 5696 5696 5695 5693 5689
5662 5658 5654 5650 5643 5636 5628 5621 5617 5614 5612 5612 5612 5610 5609 5610 5610 5610 5613 5616 5621 5626 5631 5635 5641 5647 5654 5661 5665 5670 5674 5675 5678 5681 5683 5685 5687 5688 5690 5692 5691 5690 5688
5651 5646 5641 5635 5628 5620 5612 5605 5598 5593 5590 5589 5588 5587 5586 5586 5587 5589 5592 5596 5600 5605 5610 5616 5622 5628 5635 5642 5649 5656 5663 5667 5670 5674 5677 5679 5682 5683 5685 5686 5686 5686 5686
5636 5629 5623 5617 5612 5606 5600 5593 5587 5581 5576 5572 5568 5566 5564 5563 5564 5566 5570 5574 5579 5584 5590 5595 5601 5608 5616 5623 5631 5640 5649 5656 5662 5667 5670 5674 5676 5677 5680 5681 5682 5682 5684
5623 5617 5611 5606 5601 5596 5590 5585 5580 5575 5570 5564 5559 5555 5553 5551 5550 5550 5552 5554 5558 5562 5568 5574 5581 5588 5596 5604 5613 5623 5633 5642 5650 5658 5663 5668 5671 5673 5675 5677 5678 5679 5680
5616 5610 5604 5598 5593 5589 5585 5580 5576 5571 5566 5561 5555 5552 5550 5548 5545 5543 5543 5543 5544 5547 5550 5555 5560 5567 5575 5586 5596 5605 5616 5626 5636 5646 5654 5661 5666 5669 5671 5673 5674 5676 5677
5607 5602 5597 5592 5588 5584 5580 5576 5571 5567 5562 5556 5552 5549 5546 5543 5541 5540 5539 5537 5537 5538 5540 5542 5545 5550 5559 5568 5578 5587 5599 5610 5621 5632 5642 5650 5657 5662 5665 5669 5671 5674 5675
5598 5594 5589 5585 5581 5577 5572 5567 5563 5558 5553 5549 5546 5543 5540 5538 5536 5536 5534 5532 5532 5533 5534 5536 5538 5540 5545 5551 5559 5569 5581 5594 5606 5619 5630 5640 5647 5652 5656 5660 5665 5669 5673
5591 5586 5581 5576 5571 5565 5558 5552 5547 5542 5538 5535 5534 5532 5530 5529 5528 5527 5526 5525 5525 5526 5527 5530 5533 5535 5539 5542 5546 5553 5563 5576 5591 5606 5618 5629 5637 5642 5647 5651 5655 5660 5666
5581 5576 5569 5562 5555 5546 5538 5530 5524 5519 5516 5515 5515 5515 5516 5516 5516 5516 5517 5517 5517 5519 5521 5524 5527 5530 5533 5537 5539 5542 5547 5559 5575 5592 5606 5618 5627 5634 5639 5643 5646 5651 5656
5572 5565 5558 5549 5540 5530 5520 5511 5503 5497 5493 5492 5493 5495 5498 5501 5503 5505 5507 5508 5510 5512 5515 5518 5521 5525 5529 5533 5535 5536 5538 5546 5561 5577 5594 5607 5617 5624 5630 5634 5638 5642 5647
5565 5557 5548 5538 5528 5518 5507 5496 5488 5481 5477 5475 5475 5477 5480 5484 5488 5492 5496 5498 5501 5504 5507 5511 5516 5521 5525 5529 5532 5533 5533 5538 5548 5563 5581 5596 5606 5614 5620 5625 5630 5636 5639
5559 5551 5541 5531 5520 5509 5497 5488 5480 5474 5469 5466 5465 5465 5466 5470 5477 5480 5484 5488 5491 5495 5499 5503 5509 5515 5520 5526 5529 5531 5532 5535 5541 5555 5570 5585 5595 5603 5609 5616 5620 5625 5630
5553 5545 5535 5526 5516 5504 5492 5483 5477 5471 5465 5461 5458 5457 5458 5460 5465 5469 5474 5479 5483 5487 5492 5497 5502 5509 5515 5520 5526 5528 5530 5532 5537 5547 5561 5576 5585 5592 5598 5605 5609 5615 5621
5549 5541 5532 5523 5514 5503 5491 5482 5475 5469 5463 5458 5456 5454 5454 5455 5458 5462 5468 5473 5478 5482 5487 5492 5497 5503 5508 5515 5520 5523 5526 5528 5533 5540 5552 5565 5574 5582 5589 5594 5600 5607 5612
5546 5537 5528 5519 5511 5501 5492 5484 5476 5468 5462 5458 5455 5453 5452 5453 5456 5459 5464 5469 5474 5479 5483 5488 5493 5498 5504 5513 5518 5520 5523 5525 5529 5534 5543 5555 5565 5574 5580 5586 5592 5598 5603
5544 5536 5528 5519 5510 5501 5493 5486 5479 5471 5464 5460 5455 5452 5451 5452 5454 5457 5462 5466 5470 5476 5480 5485 5490 5496 5503 5509 5513 5516 5520 5522 5524 5530 5538 5549 5560 5568 5575 5580 5584 5589 5594